Flag for U.S.A. Weather past 2 weeks in Pomona, California, U.S.A.

Now
67 °F

Fog.


Feels Like: 67 °F
Forecast: 68 / 91 °F
Wind: 6 mph from West

Location: Chino Airport

Current Time: Aug 2, 2014 at 2:16:30 AM

Latest Report: Aug 2, 2014 at 1:53 AM


Visibility: 6 mi

Pressure: 29.88 "Hg

Humidity: 87%

Dew point: 63 °F

Location of PomonaLocation

Historic Weather in Pomona — Graph

°F

Pomona temperature yesterday

Maximum temperature yesterday: 95 °F (at 1:53 PM)
Minimum temperature yesterday: 63 °F (at 5:53 AM)
Average temperature yesterday: 78 °F

Past Weeks' High & Low Weather Summary

 TemperatureHumidityPressure
High102 °F (Jul 24, 1:53 PM)97% (Jul 18, 5:53 AM)30.07 "Hg (Jul 18, 5:53 AM)
Low57 °F (Jul 23, 4:53 AM)17% (Jul 24, 1:53 PM)29.72 "Hg (Jul 24, 5:53 PM)
Average76 °F58%29.94 "Hg
* Reported Jul 18 12:53 AM — Aug 2 12:53 AM, Pomona, Weather by CustomWeather, © 2014

Note: Actual official high and low records may vary slightly from our data, if they occured in-between our weather recording intervals... More about our weather records

Advertising

Pomona weather history for previous 24 hours

 ConditionsComfort  
Time TempWeatherWind HumidityBarometerVisibility
12:53 AM
Aug 2
69 °FClear.No wind81%29.88 "Hg7 mi
11:53 PM
Aug 1
69 °FClear.No wind84%29.89 "Hg6 mi
10:53 PM70 °FClear.6 mph79%29.90 "Hg7 mi
9:53 PM73 °FClear.6 mph74%29.90 "Hg7 mi
8:53 PM74 °FClear.6 mph71%29.87 "Hg7 mi
7:53 PM78 °FPassing clouds.9 mph62%29.85 "Hg10 mi
6:53 PM84 °FScattered clouds.14 mph49%29.83 "Hg10 mi
5:53 PM87 °FScattered clouds.17 mph46%29.83 "Hg10 mi
4:53 PM91 °FScattered clouds.17 mph39%29.84 "Hg10 mi
3:53 PM95 °FScattered clouds.13 mph36%29.84 "Hg10 mi
2:53 PM95 °FScattered clouds.13 mph35%29.84 "Hg10 mi
1:53 PM95 °FPassing clouds.12 mph36%29.85 "Hg10 mi
12:53 PM94 °FPassing clouds.9 mph37%29.87 "Hg10 mi
11:53 AM94 °FPassing clouds.6 mph38%29.88 "Hg10 mi
10:53 AM87 °FPassing clouds.No wind43%29.90 "Hg10 mi
9:53 AM81 °FSunny.3 mph54%29.91 "Hg7 mi
8:53 AM75 °FSunny.No wind69%29.93 "Hg7 mi
7:53 AM70 °FSunny.No wind79%29.93 "Hg7 mi
6:53 AM65 °FClear.No wind94%29.92 "Hg10 mi
5:53 AM63 °FFog.5 mph97%29.91 "Hg6 mi
4:53 AM65 °FClear.No wind87%29.91 "Hg7 mi
3:53 AM65 °FFog.No wind94%29.90 "Hg6 mi
2:53 AM66 °FFog.No wind87%29.90 "Hg6 mi
Weather by CustomWeather, © 2014

See weather overviewHow to use our weather pages